GW5118 Weather Reports


time (UTC)temp
F
wind
direction
speed
knots
gust
knots
rain 1hr
in
rain 24hr
in
rain mn
in
humidity
%
barometer
mb
20260510162637 73 253 1.7 3.5 0.00 0.00 0.00 46 1033.2
20260510162135 75 285 1.7 8.7 0.00 0.00 0.00 46 1033.2
20260510161630 73 282 0.9 2.6 0.00 0.00 0.00 50 1033.1
20260510161127 74 247 5.2 8.7 0.00 0.00 0.00 46 1033.1
20260510160625 73 280 1.7 5.2 0.00 0.00 0.00 47 1033.1
20260510160124 73 234 3.5 6.1 0.00 0.00 0.00 47 1033.2
20260510155621 74 229 1.7 3.5 0.00 0.00 0.00 47 1033.2
20260510155117 74 268 4.3 7.8 0.00 0.00 0.00 44 1033.2
20260510154613 76 260 1.7 5.2 0.00 0.00 0.00 45 1033.1
20260510154108 74 283 0.9 5.2 0.00 0.00 0.00 45 1033.1
20260510153603 74 296 4.3 6.1 0.00 0.00 0.00 46 1033.1
20260510153100 74 184 1.7 2.6 0.00 0.00 0.00 48 1033.3
20260510152557 75 259 2.6 5.2 0.00 0.00 0.00 47 1033.3
20260510152054 74 313 0.9 2.6 0.00 0.00 0.00 53 1032.9
20260510151550 73 180 3.5 8.7 0.00 0.00 0.00 51 1033.2
20260510151048 74 240 0.9 1.7 0.00 0.00 0.00 50 1033.3
20260510150547 72 184 4.3 7.0 0.00 0.00 0.00 52 1033.3
20260510150044 72 288 0.9 3.5 0.00 0.00 0.00 54 1033.3
20260510145540 73 220 2.6 3.5 0.00 0.00 0.00 54 1033.2
20260510145037 71 240 0.9 1.7 0.00 0.00 0.00 55 1033.2
20260510144534 70 185 2.6 2.6 0.00 0.00 0.00 58 1033.3
20260510144030 70 195 1.7 1.7 0.00 0.00 0.00 59 1033.5
20260510143525 70 220 0.0 1.7 0.00 0.00 0.00 59 1033.2
20260510143022 69 237 1.7 1.7 0.00 0.00 0.00 59 1033.2
20260510142519 70 230 2.6 2.6 0.00 0.00 0.00 58 1033.4
20260510142015 68 153 0.0 0.9 0.00 0.00 0.00 62 1033.3
20260510141512 68 96 0.9 2.6 0.00 0.00 0.00 65 1033.3
20260510141009 67 199 0.9 1.7 0.00 0.00 0.00 64 1033.3
20260510140505 67 130 1.7 2.6 0.00 0.00 0.00 65 1033.3
20260510140000 67 49 1.7 1.7 0.00 0.00 0.00 67 1033.5
20260510135455 67 100 0.9 1.7 0.00 0.00 0.00 68 1033.5
20260510134953 66 194 0.0 1.7 0.00 0.00 0.00 69 1033.4
20260510134450 64 105 0.0 0.9 0.00 0.00 0.00 71 1033.6
20260510133946 64 357 0.9 1.7 0.00 0.00 0.00 71 1033.5
20260510133442 62 61 0.9 1.7 0.00 0.00 0.00 76 1033.6
20260510132938 61 85 0.9 1.7 0.00 0.00 0.00 77 1033.8
20260510132435 60 55 0.9 0.9 0.00 0.00 0.00 77 1033.7
20260510131932 60 20 0.9 0.9 0.00 0.00 0.00 77 1033.9
20260510131429 60 351 0.0 0.0 0.00 0.00 0.00 78 1033.6
20260510130926 57 356 0.0 1.7 0.00 0.00 0.00 83 1033.5
20260510130423 56 48 0.0 1.7 0.00 0.00 0.00 85 1033.6
20260510125920 55 26 0.0 0.9 0.00 0.00 0.00 87 1033.6
20260510125410 53 40 0.0 0.9 0.00 0.00 0.00 93 1033.5
20260510124908 52 31 0.0 0.9 0.00 0.00 0.00 96 1033.5
20260510124404 52 47 1.7 1.7 0.00 0.00 0.00 98 1033.5
20260510123900 51 11 0.0 0.0 0.00 0.00 0.00 99 1033.6
20260510123356 51 85 0.9 0.9 0.00 0.00 0.00 99 1033.5
20260510122853 49 19 0.0 0.9 0.00 0.00 0.00 99 1033.3
20260510122348 49 17 0.9 0.9 0.00 0.00 0.00 99 1033.5
20260510121845 49 17 0.0 0.9 0.00 0.00 0.00 99 1033.5
20260510121343 48 26 0.0 0.0 0.00 0.00 0.00 99 1033.2
20260510120839 48 31 0.0 0.0 0.00 0.00 0.00 99 1033.2
20260510120337 47 48 0.0 0.0 0.00 0.00 0.00 99 1033.2
20260510115832 47 65 0.0 0.9 0.00 0.00 0.00 99 1033.1
20260510115329 46 113 0.0 0.0 0.00 0.00 0.00 99 1033.3
20260510114825 46 113 0.0 0.0 0.00 0.00 0.00 99 1033.0
20260510114323 46 148 0.0 0.0 0.00 0.00 0.00 99 1033.1
20260510113817 45 162 0.0 0.0 0.00 0.00 0.00 99 1033.1
20260510113314 44 193 0.0 0.0 0.00 0.00 0.00 99 1033.0
20260510112811 44 195 0.0 0.0 0.00 0.00 0.00 99 1033.1
20260510112308 43 194 0.0 0.0 0.00 0.00 0.00 99 1033.1
20260510111804 43 194 0.0 0.0 0.00 0.00 0.00 99 1032.9
20260510111301 42 194 0.0 0.0 0.00 0.00 0.00 99 1033.0
20260510110800 42 194 0.0 0.0 0.00 0.00 0.00 99 1032.8
20260510110258 42 199 0.0 0.0 0.00 0.00 0.00 99 1032.7
20260510105759 42 199 0.0 0.0 0.00 0.00 0.00 99 1032.7
20260510105253 42 199 0.0 0.0 0.00 0.00 0.00 99 1032.5
20260510104750 42 210 0.0 0.0 0.00 0.00 0.00 99 1032.4
20260510104248 42 247 0.0 0.0 0.00 0.00 0.00 99 1032.3
20260510103744 42 248 0.0 0.0 0.00 0.00 0.00 99 1032.3
20260510103241 41 242 0.0 0.0 0.00 0.00 0.00 99 1032.1
20260510102741 41 242 0.0 0.0 0.00 0.00 0.00 99 1032.0
20260510102236 41 227 0.0 0.0 0.00 0.00 0.00 99 1032.2
20260510101734 41 145 0.0 0.0 0.00 0.00 0.00 99 1032.0
20260510101233 41 145 0.0 0.0 0.00 0.00 0.00 99 1031.9
20260510100728 41 145 0.0 0.0 0.00 0.00 0.00 99 1031.9
20260510100226 41 145 0.0 0.0 0.00 0.00 0.00 99 1031.9
20260510095721 41 146 0.0 0.0 0.00 0.00 0.00 99 1031.8
20260510095217 42 146 0.0 0.0 0.00 0.00 0.00 99 1031.8
20260510094716 42 146 0.0 0.0 0.00 0.00 0.00 99 1031.7
20260510094212 42 146 0.0 0.0 0.00 0.00 0.00 99 1031.7
20260510093708 42 146 0.0 0.0 0.00 0.00 0.00 99 1031.9
20260510093205 42 146 0.0 0.0 0.00 0.00 0.00 99 1031.7
20260510092701 42 146 0.0 0.0 0.00 0.00 0.00 99 1031.6
20260510092157 42 146 0.0 0.0 0.00 0.00 0.00 99 1031.8
20260510091653 42 146 0.0 0.0 0.00 0.00 0.00 99 1031.6
20260510091149 42 146 0.0 0.0 0.00 0.00 0.00 99 1031.7
20260510090646 42 145 0.0 0.0 0.00 0.00 0.00 99 1031.4
20260510090143 42 145 0.0 0.0 0.00 0.00 0.00 99 1031.5
20260510085638 42 145 0.0 0.0 0.00 0.00 0.00 99 1031.4
20260510085133 42 175 0.0 0.0 0.00 0.00 0.00 99 1031.5
20260510084630 43 210 0.0 0.0 0.00 0.00 0.00 99 1031.3
20260510084126 43 210 0.0 0.0 0.00 0.00 0.00 99 1031.5
20260510083623 43 210 0.0 0.0 0.00 0.00 0.00 99 1031.0
20260510083119 44 210 0.0 0.0 0.00 0.00 0.00 99 1031.2
20260510082615 44 210 0.0 0.0 0.00 0.00 0.00 99 1031.4
20260510082111 44 210 0.0 0.0 0.00 0.00 0.00 99 1031.3
20260510081606 44 211 0.0 0.0 0.00 0.00 0.00 98 1030.9
20260510081102 44 210 0.0 0.0 0.00 0.00 0.00 98 1031.0
20260510080601 44 210 0.0 0.0 0.00 0.00 0.00 98 1030.8
20260510080058 44 210 0.0 0.9 0.00 0.00 0.00 98 1030.8
20260510075555 44 203 0.9 1.7 0.00 0.00 0.00 98 1030.5
20260510075052 44 190 1.7 1.7 0.00 0.00 0.00 98 1030.7
20260510074550 45 55 0.0 0.0 0.00 0.00 0.00 98 1030.6
20260510074045 45 55 0.0 0.0 0.00 0.00 0.00 98 1030.7
20260510073541 45 55 0.0 0.0 0.00 0.00 0.00 98 1030.4
20260510073039 45 55 0.0 0.0 0.00 0.00 0.00 98 1030.6
20260510072535 45 55 0.0 0.0 0.00 0.00 0.00 98 1030.4
20260510072031 45 55 0.0 0.0 0.00 0.00 0.00 98 1030.6
20260510071527 45 55 0.0 0.0 0.00 0.00 0.00 98 1030.6
20260510071025 46 55 0.0 0.9 0.00 0.00 0.00 98 1030.6
20260510070522 46 257 0.0 0.0 0.00 0.00 0.00 98 1030.6
20260510070019 46 257 0.0 0.0 0.00 0.00 0.00 98 1030.6
20260510065515 46 256 0.0 0.0 0.00 0.00 0.00 98 1030.5
20260510065011 46 256 0.0 0.0 0.00 0.00 0.00 98 1030.7
20260510064508 46 256 0.0 0.0 0.00 0.00 0.00 97 1030.6
20260510064005 46 248 0.0 0.0 0.00 0.00 0.00 97 1030.7
20260510063501 46 221 0.0 0.9 0.00 0.00 0.00 97 1030.7
20260510062959 46 223 0.9 1.7 0.00 0.00 0.00 97 1030.7
20260510062454 46 192 1.7 1.7 0.00 0.00 0.00 97 1030.5
20260510061949 47 196 1.7 1.7 0.00 0.00 0.00 97 1030.6
20260510061446 47 223 0.9 1.7 0.00 0.00 0.00 97 1030.4
20260510060943 47 224 0.0 0.0 0.00 0.00 0.00 96 1030.4
20260510060440 47 224 0.0 0.0 0.00 0.00 0.00 96 1030.3
20260510055936 47 224 0.0 0.0 0.00 0.00 0.00 96 1030.5
20260510055432 47 224 0.0 0.0 0.00 0.00 0.00 96 1030.4
20260510054931 48 224 0.0 0.0 0.00 0.00 0.00 96 1030.5
20260510054431 48 224 0.0 0.0 0.00 0.00 0.00 95 1030.6
20260510053926 48 224 0.0 0.0 0.00 0.00 0.00 95 1030.7
20260510053422 47 223 0.0 0.0 0.00 0.00 0.00 95 1030.6
20260510052918 47 223 0.0 0.0 0.00 0.00 0.00 95 1030.5
20260510052414 48 223 0.0 0.0 0.00 0.00 0.00 95 1030.6
20260510051911 48 223 0.0 0.0 0.00 0.00 0.00 95 1030.6
20260510051407 48 223 0.0 0.0 0.00 0.00 0.00 95 1030.5
20260510050904 49 223 0.0 0.0 0.00 0.00 0.00 95 1030.5
20260510050400 49 223 0.9 0.9 0.00 0.00 0.00 95 1030.6
20260510045857 49 223 0.0 0.0 0.00 0.00 0.00 94 1030.6
20260510045354 49 223 0.0 0.0 0.00 0.00 0.00 94 1030.7
20260510044851 49 223 0.0 0.0 0.00 0.00 0.00 93 1030.7
20260510044348 49 223 0.0 0.0 0.00 0.00 0.00 93 1030.6
20260510043844 49 223 0.0 0.9 0.00 0.00 0.00 93 1030.6
20260510043340 49 223 0.0 0.0 0.00 0.00 0.00 92 1030.6
20260510042839 49 223 0.0 0.0 0.00 0.00 0.00 92 1030.5
20260510042334 50 223 0.0 0.0 0.00 0.00 0.00 91 1030.6
20260510041831 50 223 0.9 0.9 0.00 0.00 0.00 91 1030.6
20260510041328 50 223 0.0 0.0 0.00 0.00 0.00 91 1030.3
20260510040825 50 222 0.0 0.0 0.00 0.00 0.00 91 1030.4
20260510040322 51 222 0.0 0.0 0.00 0.00 0.00 90 1030.4
20260510035817 51 222 0.0 0.0 0.00 0.00 0.00 90 1030.4
20260510035314 51 223 0.0 0.9 0.00 0.00 0.00 90 1030.4
20260510034809 51 223 0.9 1.7 0.00 0.00 0.00 89 1030.3
20260510034307 52 224 0.9 1.7 0.00 0.00 0.00 88 1030.4
20260510033803 52 261 0.0 0.0 0.00 0.00 0.00 88 1030.3
20260510033301 52 261 0.9 1.7 0.00 0.00 0.00 88 1030.3
20260510032758 52 261 0.9 0.9 0.00 0.00 0.00 88 1030.4
20260510032254 52 261 0.0 0.9 0.00 0.00 0.00 87 1030.3
20260510031750 52 213 0.0 0.0 0.00 0.00 0.00 86 1030.5
20260510031246 53 213 0.0 0.9 0.00 0.00 0.00 86 1030.2
20260510030745 53 194 0.9 1.7 0.00 0.00 0.00 85 1030.1
20260510030242 53 198 0.0 0.0 0.00 0.00 0.00 85 1030.3
20260510025739 53 198 0.0 0.0 0.00 0.00 0.00 84 1030.3
20260510025237 53 198 0.0 0.0 0.00 0.00 0.00 83 1030.4
20260510024728 54 198 0.0 0.0 0.00 0.00 0.00 83 1030.3
20260510024225 54 198 0.0 0.0 0.00 0.00 0.00 81 1030.3
20260510023720 55 198 0.0 0.9 0.00 0.00 0.00 81 1030.0
20260510023218 55 198 0.9 1.7 0.00 0.00 0.00 81 1030.1
20260510022714 55 198 0.9 1.7 0.00 0.00 0.00 80 1029.9
20260510022208 56 213 0.9 0.9 0.00 0.00 0.00 78 1029.9
20260510021703 56 213 0.0 0.0 0.00 0.00 0.00 78 1029.8
20260510021201 56 213 0.9 0.9 0.00 0.00 0.00 78 1029.9
20260510020656 56 213 0.9 0.9 0.00 0.00 0.00 77 1029.8
20260510020151 57 214 0.9 1.7 0.00 0.00 0.00 76 1029.4
20260510015647 57 224 0.9 0.9 0.00 0.00 0.00 75 1029.6
20260510015144 57 217 0.9 1.7 0.00 0.00 0.00 75 1029.2
20260510014644 57 227 0.9 0.9 0.00 0.00 0.00 74 1029.2
20260510014142 57 227 0.9 1.7 0.00 0.00 0.00 74 1029.0
20260510013637 58 195 1.7 1.7 0.00 0.00 0.00 72 1029.0
20260510013133 59 213 0.9 0.9 0.00 0.00 0.00 70 1028.9
20260510012633 59 214 0.0 0.0 0.00 0.00 0.00 69 1029.1
20260510012129 60 214 0.0 0.0 0.00 0.00 0.00 68 1028.9
20260510011629 60 214 0.9 1.7 0.00 0.00 0.00 67 1028.8
20260510011125 60 222 0.0 0.9 0.00 0.00 0.00 66 1028.6
20260510010621 61 223 0.0 0.9 0.00 0.00 0.00 65 1028.7
20260510010119 61 221 1.7 1.7 0.00 0.00 0.00 63 1028.5
20260510005614 61 216 0.9 1.7 0.00 0.00 0.00 62 1028.4
20260510005112 62 238 0.0 0.0 0.00 0.00 0.00 61 1028.2
20260510004610 62 235 0.0 0.0 0.00 0.00 0.00 60 1028.2
20260510004108 62 235 0.0 0.0 0.00 0.00 0.00 60 1028.3
20260510003604 63 235 0.0 0.0 0.00 0.00 0.00 59 1028.4
20260510003100 63 235 0.0 0.9 0.00 0.00 0.00 58 1028.4
20260510002555 64 237 1.7 1.7 0.00 0.00 0.00 58 1028.3
20260510002052 64 239 0.9 0.9 0.00 0.00 0.00 57 1028.4
20260510001549 64 242 0.9 0.9 0.00 0.00 0.00 57 1028.3
20260510001048 65 229 1.7 1.7 0.00 0.00 0.00 56 1028.1
20260510000548 65 229 0.9 5.2 0.00 0.00 0.00 56 1027.8
20260510000044 65 250 0.9 3.5 0.00 0.00 0.00 55 1027.9
20260509235541 66 242 0.9 1.7 0.00 0.00 0.00 54 1027.8
20260509235038 66 223 0.0 0.9 0.00 0.00 0.00 54 1027.7
20260509234534 67 240 0.9 1.7 0.00 0.00 0.00 52 1027.6
20260509234032 68 243 0.0 0.9 0.00 0.00 0.00 51 1027.6
20260509233529 68 257 0.9 1.7 0.00 0.00 0.00 51 1027.5
20260509233026 68 220 1.7 1.7 0.00 0.00 0.00 50 1027.5
20260509232523 68 239 0.9 3.5 0.00 0.00 0.00 49 1027.4
20260509232020 69 254 1.7 3.5 0.00 0.00 0.00 48 1027.4
20260509231516 69 257 2.6 5.2 0.00 0.00 0.00 49 1027.5
20260509231014 69 259 0.9 5.2 0.00 0.00 0.00 49 1027.4
20260509230510 69 247 1.7 3.5 0.00 0.00 0.00 49 1027.4
20260509230008 69 265 2.6 7.8 0.00 0.00 0.00 48 1027.3
20260509225503 69 201 4.3 6.1 0.00 0.00 0.00 48 1027.4
20260509224959 69 238 2.6 2.6 0.00 0.00 0.00 48 1027.5
20260509224454 70 239 2.6 3.5 0.00 0.00 0.00 47 1027.6
20260509223952 70 243 1.7 7.0 0.00 0.00 0.00 47 1027.5
20260509223448 70 229 1.7 2.6 0.00 0.00 0.00 46 1027.7
20260509222946 70 275 1.7 6.1 0.00 0.00 0.00 47 1027.6
20260509222441 70 268 3.5 5.2 0.00 0.00 0.00 47 1027.6
20260509221937 70 229 4.3 6.1 0.00 0.00 0.00 46 1027.7
20260509221434 71 248 4.3 7.0 0.00 0.00 0.00 45 1027.8
20260509220929 71 272 1.7 5.2 0.00 0.00 0.00 46 1027.7
20260509220426 70 253 1.7 2.6 0.00 0.00 0.00 48 1027.8
20260509215922 70 242 1.7 2.6 0.00 0.00 0.00 46 1027.6
20260509215417 71 272 3.5 6.1 0.00 0.00 0.00 45 1027.7
20260509214915 72 217 1.7 5.2 0.00 0.00 0.00 46 1027.7
20260509214412 71 287 2.6 7.0 0.00 0.00 0.00 45 1027.6
20260509213909 70 234 1.7 5.2 0.00 0.00 0.00 46 1027.4
20260509213405 70 238 5.2 9.6 0.00 0.00 0.00 45 1027.6
20260509212903 70 310 1.7 7.0 0.00 0.00 0.00 46 1027.3
20260509212400 70 247 2.6 3.5 0.00 0.00 0.00 47 1027.3
20260509211856 69 229 0.9 1.7 0.00 0.00 0.00 47 1027.4
20260509211352 69 232 2.6 5.2 0.00 0.00 0.00 47 1027.3
20260509210848 70 269 1.7 7.8 0.00 0.00 0.00 46 1027.3
20260509210346 70 263 2.6 3.5 0.00 0.00 0.00 46 1027.2
20260509205846 70 271 1.7 1.7 0.00 0.00 0.00 46 1027.2
20260509205340 69 252 1.7 6.1 0.00 0.00 0.00 47 1027.2
20260509204837 69 232 3.5 5.2 0.00 0.00 0.00 46 1027.1
20260509204333 69 253 3.5 6.1 0.00 0.00 0.00 47 1027.1
20260509203830 70 232 0.0 1.7 0.00 0.00 0.00 48 1027.0
20260509203327 70 228 1.7 6.1 0.00 0.00 0.00 47 1026.8
20260509202823 69 253 1.7 5.2 0.00 0.00 0.00 48 1026.8
20260509202319 69 226 6.1 8.7 0.00 0.00 0.00 47 1026.9
20260509201818 69 242 5.2 6.1 0.00 0.00 0.00 46 1026.7
20260509201316 70 226 4.3 8.7 0.00 0.00 0.00 45 1026.9
20260509200812 70 206 4.3 5.2 0.00 0.00 0.00 46 1026.7
20260509200307 70 210 1.7 5.2 0.00 0.00 0.00 45 1026.6
20260509195804 69 291 1.7 2.6 0.00 0.00 0.00 47 1026.8
20260509195259 69 201 2.6 7.8 0.00 0.00 0.00 47 1026.7
20260509194759 69 249 4.3 5.2 0.00 0.00 0.00 43 1026.8
20260509194255 70 263 4.3 7.8 0.00 0.00 0.00 45 1026.6
20260509193752 70 203 1.7 6.1 0.00 0.00 0.00 45 1026.6
20260509193247 72 224 6.1 8.7 0.00 0.00 0.00 43 1026.7
20260509192743 72 172 9.6 13.0 0.00 0.00 0.00 41 1026.4
20260509192243 71 213 1.7 7.0 0.00 0.00 0.00 45 1026.7
20260509191739 70 222 4.3 6.1 0.00 0.00 0.00 44 1026.7
20260509191236 70 238 1.7 7.0 0.00 0.00 0.00 42 1026.4
20260509190732 70 219 3.5 5.2 0.00 0.00 0.00 42 1026.6
20260509190229 70 248 3.5 7.0 0.00 0.00 0.00 42 1026.7
20260509185726 71 280 2.6 5.2 0.00 0.00 0.00 43 1026.4
20260509185222 70 220 2.6 5.2 0.00 0.00 0.00 42 1026.6
20260509184720 70 240 3.5 9.6 0.00 0.00 0.00 40 1026.8
20260509184217 71 271 3.5 9.6 0.00 0.00 0.00 43 1026.7
20260509183713 70 181 3.5 6.1 0.00 0.00 0.00 42 1026.7
20260509183209 69 222 1.7 7.8 0.00 0.00 0.00 42 1026.8
20260509182705 72 261 5.2 9.6 0.00 0.00 0.00 40 1026.6
20260509182203 71 267 0.9 3.5 0.00 0.00 0.00 43 1026.4
20260509181700 70 250 0.9 5.2 0.00 0.00 0.00 44 1026.6
20260509181158 70 246 1.7 6.1 0.00 0.00 0.00 43 1026.7
20260509180654 69 213 1.7 3.5 0.00 0.00 0.00 46 1026.8
20260509180150 70 245 3.5 6.1 0.00 0.00 0.00 43 1026.8
20260509175647 70 244 4.3 7.8 0.00 0.00 0.00 41 1026.8
20260509175144 70 235 0.9 7.8 0.00 0.00 0.00 43 1026.7
20260509174640 71 268 3.5 5.2 0.00 0.00 0.00 42 1026.8
20260509174139 70 227 1.7 5.2 0.00 0.00 0.00 42 1026.9
20260509173636 70 270 5.2 7.8 0.00 0.00 0.00 44 1027.0
20260509173131 69 180 2.6 7.0 0.00 0.00 0.00 45 1027.0
20260509172628 68 247 2.6 6.1 0.00 0.00 0.00 46 1027.0
20260509172125 69 216 3.5 9.6 0.00 0.00 0.00 47 1027.2
20260509171620 69 214 5.2 8.7 0.00 0.00 0.00 48 1027.0
20260509171117 68 195 1.7 7.0 0.00 0.00 0.00 46 1027.2
20260509170613 69 196 2.6 11.3 0.00 0.00 0.00 45 1027.3
20260509170109 68 240 2.6 7.8 0.00 0.00 0.00 47 1027.3
20260509165608 68 242 4.3 7.0 0.00 0.00 0.00 50 1027.4
20260509165103 68 208 3.5 5.2 0.00 0.00 0.00 52 1027.3
20260509164600 69 169 3.5 6.1 0.00 0.00 0.00 52 1027.4
20260509164055 70 159 1.7 9.6 0.00 0.00 0.00 52 1027.5
20260509163554 68 41 0.9 3.5 0.00 0.00 0.00 55 1027.6
20260509163049 68 253 4.3 6.1 0.00 0.00 0.00 53 1027.6